TVF1YS EBBR-LFPO

Flight info

Callsign TVF1YS
Flight time N/A
Altitude 17000
Route CIV Y50 MATIX
Aircraft B738/M-SDE2E3FGHIRWXY/LB1

Departure

Time 2026-05-06 15:20
Airport Brussels Airport (EBBR)

Arrival

Time N/A
Airport Paris-Orly Airport (LFPO)
Time Latitude Longitude Altitude Speed Heading
2026-05-06 14:56 50.89806 4.49098 156 ft 0 kts 153°
2026-05-06 15:08 50.89822 4.49086 156 ft 3 kts 152°
2026-05-06 15:08 50.89839 4.49071 155 ft 3 kts 151°
2026-05-06 15:08 50.89855 4.49055 153 ft 3 kts 127°
2026-05-06 15:09 50.89860 4.49036 153 ft 1 kts 72°
2026-05-06 15:09 50.89855 4.49020 152 ft 2 kts 52°
2026-05-06 15:09 50.89850 4.49008 152 ft 0 kts 65°
2026-05-06 15:13 50.89861 4.49044 153 ft 8 kts 65°
2026-05-06 15:13 50.89888 4.49135 155 ft 9 kts 65°
2026-05-06 15:13 50.89902 4.49187 155 ft 5 kts 66°
2026-05-06 15:13 50.89918 4.49240 155 ft 6 kts 61°
2026-05-06 15:14 50.89960 4.49273 154 ft 9 kts 12°
2026-05-06 15:14 50.90006 4.49344 152 ft 11 kts 62°
2026-05-06 15:14 50.90061 4.49432 149 ft 13 kts 17°
2026-05-06 15:14 50.90171 4.49477 142 ft 19 kts 13°
2026-05-06 15:15 50.90300 4.49529 138 ft 18 kts 14°
2026-05-06 15:15 50.90420 4.49578 133 ft 18 kts 14°
2026-05-06 15:15 50.90549 4.49631 128 ft 19 kts 13°
2026-05-06 15:15 50.90651 4.49673 123 ft 14 kts 14°
2026-05-06 15:16 50.90737 4.49707 120 ft 9 kts 14°
2026-05-06 15:16 50.90802 4.49733 118 ft 12 kts 14°
2026-05-06 15:16 50.90865 4.49759 114 ft 5 kts 14°
2026-05-06 15:16 50.90915 4.49783 111 ft 10 kts 24°
2026-05-06 15:17 50.90975 4.49853 109 ft 10 kts 39°
2026-05-06 15:17 50.91027 4.49902 105 ft 4 kts 24°
2026-05-06 15:17 50.91033 4.49907 106 ft 0 kts 24°
2026-05-06 15:18 50.91038 4.49911 105 ft 4 kts 24°
2026-05-06 15:18 50.91095 4.49945 102 ft 14 kts 10°
2026-05-06 15:19 50.91143 4.49900 104 ft 5 kts 271°
2026-05-06 15:19 50.91138 4.49880 104 ft 2 kts 247°
2026-05-06 15:19 50.91099 4.49743 108 ft 44 kts 245°
2026-05-06 15:19 50.90838 4.48841 112 ft 133 kts 245°
2026-05-06 15:20 50.90360 4.47228 415 ft 176 kts 250°
2026-05-06 15:20 50.89834 4.45360 1285 ft 195 kts 250°
2026-05-06 15:20 50.89402 4.43289 2183 ft 205 kts 256°
2026-05-06 15:20 50.88964 4.41085 2830 ft 218 kts 256°
2026-05-06 15:21 50.88489 4.38665 3215 ft 239 kts 256°
2026-05-06 15:21 50.87795 4.36231 3794 ft 253 kts 233°
2026-05-06 15:21 50.86348 4.34583 4145 ft 268 kts 206°
2026-05-06 15:21 50.84634 4.33364 5006 ft 273 kts 206°
2026-05-06 15:22 50.82907 4.32052 6006 ft 278 kts 209°
2026-05-06 15:22 50.81211 4.30549 7079 ft 282 kts 212°
2026-05-06 15:22 50.79513 4.28958 8773 ft 284 kts 212°
2026-05-06 15:22 50.77811 4.27351 10550 ft 285 kts 212°
2026-05-06 15:23 50.76099 4.25743 11695 ft 287 kts 212°
2026-05-06 15:23 50.74356 4.24114 12657 ft 297 kts 212°
2026-05-06 15:23 50.72547 4.22431 13663 ft 306 kts 212°
2026-05-06 15:23 50.70696 4.20718 14699 ft 309 kts 212°
2026-05-06 15:24 50.68846 4.19011 15844 ft 311 kts 212°
2026-05-06 15:24 50.66952 4.17267 16601 ft 315 kts 212°
2026-05-06 15:24 50.65060 4.15530 16885 ft 318 kts 212°
2026-05-06 15:24 50.63060 4.13691 16902 ft 349 kts 212°
2026-05-06 15:25 50.60906 4.11714 16898 ft 360 kts 212°
2026-05-06 15:25 50.58726 4.09719 16892 ft 364 kts 211°
2026-05-06 15:25 50.56541 4.07724 16880 ft 363 kts 212°
2026-05-06 15:25 50.54353 4.05726 16880 ft 363 kts 211°
2026-05-06 15:26 50.52175 4.03740 16885 ft 363 kts 211°
2026-05-06 15:26 50.49989 4.01748 16889 ft 363 kts 211°
2026-05-06 15:26 50.47804 3.99759 16887 ft 363 kts 211°
2026-05-06 15:26 50.45619 3.97772 16888 ft 363 kts 211°
2026-05-06 15:27 50.43434 3.95786 16889 ft 363 kts 211°
2026-05-06 15:27 50.41247 3.93799 16888 ft 363 kts 211°
2026-05-06 15:27 50.39061 3.91818 16890 ft 363 kts 211°
2026-05-06 15:27 50.36877 3.89844 16894 ft 363 kts 210°
2026-05-06 15:28 50.34546 3.88317 16882 ft 365 kts 196°
2026-05-06 15:28 50.32037 3.87687 16895 ft 366 kts 183°
2026-05-06 15:28 50.29487 3.87901 16896 ft 367 kts 175°
2026-05-06 15:28 50.26951 3.88369 16893 ft 368 kts 174°
2026-05-06 15:29 50.24410 3.88867 16888 ft 368 kts 174°
2026-05-06 15:29 50.21869 3.89349 16893 ft 368 kts 174°
2026-05-06 15:29 50.19323 3.89805 16888 ft 368 kts 174°
2026-05-06 15:29 50.16779 3.90243 16888 ft 368 kts 174°
2026-05-06 15:30 50.14229 3.90675 16888 ft 368 kts 174°
2026-05-06 15:30 50.12545 3.90924 16893 ft 367 kts 179°
2026-05-06 15:30 50.09213 3.89999 16894 ft 365 kts 203°
2026-05-06 15:30 50.07734 3.88785 16879 ft 364 kts 216°
2026-05-06 15:31 50.05757 3.86370 16895 ft 362 kts 220°
2026-05-06 15:31 50.03830 3.83836 16884 ft 361 kts 221°
2026-05-06 15:31 50.01923 3.81286 16883 ft 361 kts 221°
2026-05-06 15:32 49.98111 3.76213 16891 ft 361 kts 221°
2026-05-06 15:32 49.96198 3.73693 16892 ft 361 kts 221°
2026-05-06 15:32 49.94282 3.71183 16893 ft 360 kts 221°
2026-05-06 15:32 49.92363 3.68680 16900 ft 360 kts 221°
2026-05-06 15:33 49.90438 3.66178 16893 ft 361 kts 221°
2026-05-06 15:33 49.88516 3.63686 16892 ft 360 kts 221°
2026-05-06 15:33 49.86593 3.61198 16894 ft 360 kts 220°
2026-05-06 15:33 49.84667 3.58709 16894 ft 360 kts 221°